Torna al catalogo

STARLINK-3967

AttivoComunicazioniVLEO
NORAD 52636·PAYLOAD·🇺🇸 United States

Lanciato May 14, 2022 da Cape Canaveral Space Force Station

Loading…

Prossimi Passaggi (prossime 24 ore)

TLE

AggiornatoSource: CelesTrak SupGP

Epoca: Sep 14, 2026, 14:28 UTC

1 52636C 22052AQ  26257.60326389  .00032267  00000+0  92323-3 0  2570
2 52636  53.1576 130.7005 0001277  91.9918 125.6103 15.35381234    15

Traccia STARLINK-3967 in tempo reale con AllMySat

Download on the App Store